Albany, NY

12:37 PM EDT on July 20, 2017 (GMT -0400)
Albany International

Weather History for KALB - July, 2013

Change the Weather History Date:

Thursday, July 18, 2013

  Actual Average Record
Temperature  
Mean Temperature 86 °F 72 °F  
Max Temperature 94 °F 83 °F 100 °F (1953)
Min Temperature 77 °F 62 °F 46 °F (1939)
Degree Days  
Heating Degree Days 0 0  
Month to date heating degree days 0 0  
Since 1 June heating degree days 55 52  
Since 1 July heating degree days 0 0  
Cooling Degree Days 21 7  
Month to date cooling degree days 256 123  
Year to date cooling degree days 448 271  
Since 1 June cooling degree days 399 241  
Growing Degree Days 35 (Base 50)    
Moisture  
Dew Point 71 °F    
Average Humidity 65    
Maximum Humidity 85    
Minimum Humidity 44    
Precipitation  
Precipitation 0.00 in 0.14 in 1.86 in (2007)
Month to date precipitation 3.91 2.39  
Year to date precipitation 27.33 20.96  
Sea Level Pressure  
Sea Level Pressure 30.00 in    
Wind  
Wind Speed 6 mph (WNW)    
Max Wind Speed 18 mph    
Max Gust Speed 24 mph    
Visibility 10 miles    
Events      
T = Trace of Precipitation, MM = Missing Value Source: NWS Daily Summary

Daily Weather History Graph

Daily Weather History Graph

Search for Another Location

Airport or City:

Trip Planner

Search our weather history database for the weather conditions in past years. The results will help you decide how hot, cold, wet, or windy it might be!

Date:

Astronomy

Jul. 18, 2013 Rise Set
Actual Time 5:33 AM EDT 8:29 PM EDT
Civil Twilight 4:59 AM EDT 9:02 PM EDT
Nautical Twilight 4:17 AM EDT 9:45 PM EDT
Astronomical Twilight 3:26 AM EDT 10:34 PM EDT
Moon 4:22 PM EDT (7/18) 1:23 AM EDT (7/18)
Length of Visible Light 16h 02m
Length of Day
14h 55m
Waxing Gibbous, 77% of the Moon is Illuminated
Jul 18
Waxing Gibbous
Jul 22
Full
Jul 29
Last Quarter
Aug 6
New
Aug 14
First Quarter

Hourly Weather History & Observations

Time (EDT) Temp. Heat Index Dew Point Humidity Pressure Visibility Wind Dir Wind Speed Gust Speed Precip Events Conditions
12:51 AM 81.0 °F 84.9 °F 71.1 °F 72% 30.03 in 10.0 mi WSW 4.6 mph - N/A   Scattered Clouds
1:51 AM 80.1 °F 83.6 °F 71.1 °F 74% 30.02 in 10.0 mi West 5.8 mph - N/A   Scattered Clouds
2:51 AM 78.1 °F - 71.1 °F 79% 30.02 in 10.0 mi West 4.6 mph - N/A   Scattered Clouds
3:51 AM 78.1 °F - 71.1 °F 79% 30.01 in 10.0 mi WNW 3.5 mph - N/A   Scattered Clouds
4:51 AM 77.0 °F - 71.1 °F 82% 30.02 in 10.0 mi West 4.6 mph - N/A   Partly Cloudy
5:51 AM 77.0 °F - 71.1 °F 82% 30.03 in 10.0 mi Calm Calm - N/A   Partly Cloudy
6:51 AM 79.0 °F - 73.0 °F 82% 30.04 in 10.0 mi West 4.6 mph - N/A   Scattered Clouds
7:51 AM 82.0 °F 87.9 °F 73.9 °F 76% 30.04 in 10.0 mi West 8.1 mph - N/A   Clear
8:51 AM 84.0 °F 90.2 °F 73.0 °F 69% 30.04 in 10.0 mi West 5.8 mph - N/A   Scattered Clouds
9:51 AM 86.0 °F 92.2 °F 72.0 °F 63% 30.04 in 10.0 mi NW 8.1 mph - N/A   Scattered Clouds
10:51 AM 87.1 °F 94.5 °F 73.0 °F 63% 30.04 in 10.0 mi NE 4.6 mph - N/A   Mostly Cloudy
11:51 AM 89.1 °F 94.1 °F 70.0 °F 53% 30.03 in 10.0 mi WNW 9.2 mph - N/A   Mostly Cloudy
12:51 PM 90.0 °F 95.4 °F 70.0 °F 52% 30.01 in 10.0 mi NW 15.0 mph 23.0 mph N/A   Mostly Cloudy
1:51 PM 91.9 °F 97.4 °F 70.0 °F 48% 30.00 in 10.0 mi NW 11.5 mph - N/A   Scattered Clouds
2:51 PM 91.9 °F 97.4 °F 70.0 °F 48% 29.98 in 10.0 mi NW 8.1 mph - N/A   Scattered Clouds
3:51 PM 91.9 °F 95.4 °F 66.9 °F 44% 29.97 in 10.0 mi NW 15.0 mph 24.2 mph N/A   Scattered Clouds
4:51 PM 91.9 °F 95.9 °F 68.0 °F 45% 29.94 in 10.0 mi WNW 10.4 mph - N/A   Mostly Cloudy
5:51 PM 91.0 °F 96.6 °F 70.0 °F 50% 29.94 in 10.0 mi West 6.9 mph - N/A   Mostly Cloudy
6:51 PM 91.0 °F 96.6 °F 70.0 °F 50% 29.96 in 10.0 mi West 8.1 mph - N/A   Mostly Cloudy
7:51 PM 87.1 °F 91.3 °F 69.1 °F 55% 29.96 in 10.0 mi West 5.8 mph - N/A   Mostly Cloudy
8:51 PM 87.1 °F 91.3 °F 69.1 °F 55% 29.95 in 10.0 mi SSW 3.5 mph - N/A   Mostly Cloudy
9:51 PM 82.9 °F 87.5 °F 71.1 °F 67% 29.96 in 10.0 mi Calm Calm - N/A   Mostly Cloudy
10:51 PM 82.0 °F 86.7 °F 72.0 °F 71% 29.95 in 10.0 mi South 3.5 mph - N/A   Scattered Clouds
11:51 PM 80.1 °F 83.8 °F 72.0 °F 76% 29.94 in 10.0 mi Calm Calm - N/A   Scattered Clouds